#timestamp,LO_Frequency,Hit 
1504591215.0,286046998.8,N
1504591215.9,286046998.8,N
1504591235.7,286046996.5,N
1504591255.6,286046997.1,N
1504591275.4,286046997.2,N
1504591295.2,286046995.2,N
1504591315.1,286046995.1,N
1504591316.0,286046995.1,N
1504591335.8,286046997.7,N
1504591355.6,286046995.2,N
1504591375.5,286046997.8,N
1504591395.3,286046996.8,N
1504591415.1,286046998.4,N
1504591435.9,286046999.0,N
1504591455.7,286046997.9,N
1504591475.5,286046996.2,N
1504591495.4,286046995.3,N
1504591515.2,286046993.3,P
1504591535.0,286046997.1,N
1504591535.9,286046997.1,N
1504591555.8,286046997.0,N
1504591575.6,286046998.7,N
1504591595.4,286047001.0,N
1504591615.3,286047000.6,N
1504591635.1,286047000.1,N
1504591636.0,286047000.1,N
1504591655.8,286047000.2,N
1504591675.7,286047001.4,N
1504591695.5,286047001.9,N
1504591715.3,286046998.9,N
1504591735.1,286046999.1,N
1504591755.9,286046997.1,N
1504591775.7,286046998.7,N
1504591795.5,286047001.1,N
1504591815.4,286046998.9,N
1504591835.2,286047000.3,N
1504591855.0,286047000.4,N
1504591855.9,286047000.4,N
1504591875.8,286047000.6,N
1504591895.6,286046998.9,N
1504591915.4,286046995.1,N
1504591935.3,286046999.5,N
1504591955.1,286046995.5,N
1504591956.0,286046995.5,N
1504591975.8,286046996.7,N
1504591995.7,286046995.5,N
1504592015.5,286046993.5,N
1504592035.3,286046995.3,N
1504592055.1,286047001.1,N
1504592075.9,286046999.3,N
1504592095.7,286046998.7,N
1504592115.5,286046999.2,N
1504592135.4,286046999.6,N
1504592155.2,286046999.0,N
1504592175.0,286046999.2,N
1504592175.9,286046999.2,N
1504592195.8,286046998.7,N
1504592215.6,286047000.3,N
1504592235.4,286047001.4,N
1504592255.3,286047001.8,N
1504592275.1,286047004.1,N
1504592276.0,286047004.1,N
1504592295.8,286047001.2,N
1504592315.7,286046998.9,N
1504592335.5,286047000.0,N
1504592355.3,286047002.5,N
1504592375.2,286047002.2,N
1504592395.9,286047000.1,N
1504592415.7,286046999.9,N
1504592435.5,286047002.8,N
1504592455.4,286046999.6,N
1504592475.2,286046997.1,N
1504592495.0,286046995.3,N
1504592495.9,286046995.3,N
1504592515.8,286046998.6,N
1504592535.6,286046998.2,N
1504592555.4,286046998.7,N
1504592575.3,286047002.4,N
1504592595.1,286047004.0,N
1504592615.8,286047004.3,N
1504592635.7,286047004.3,N
1504592655.5,286047003.8,N
1504592675.3,286047003.9,N
1504592695.2,286047002.1,N
1504592715.9,286046998.5,N
1504592735.7,286046998.5,N
1504592755.6,286047002.8,N
1504592775.4,286047005.2,N
1504592795.2,286047005.2,N
1504592815.0,286047003.8,N
1504592816.0,286047003.8,N
1504592835.8,286047000.5,N
1504592855.6,286046996.5,N
1504592875.4,286046995.2,N
1504592895.3,286046993.4,N
1504592915.1,286046993.6,N
1504592935.8,286046998.7,N
1504592955.7,286046995.1,N
1504592975.5,286046995.9,N
1504592995.3,286046997.5,N
1504593015.2,286046997.9,N
1504593035.9,286046995.0,N
1504593055.7,286046997.5,N
1504593075.6,286046996.3,N
1504593095.4,286046995.1,N
1504593115.2,286046995.2,N
1504593135.0,286046995.1,N
1504593136.0,286046995.1,N
1504593155.8,286046995.6,N
1504593175.6,286046994.2,N
1504593195.4,286046992.6,N
1504593215.3,286046991.6,N
1504593235.1,286046988.5,N
1504593255.8,286046990.7,N
1504593275.7,286046988.5,N
1504593295.5,286046991.2,N
1504593315.3,286046993.2,N
1504593335.2,286046990.3,N
1504593355.9,286046992.0,N
1504593375.7,286046994.0,N
1504593395.6,286046992.8,N
1504593415.4,286046990.9,P
1504593435.2,286046996.2,N
1504593455.1,286046995.9,N
1504593456.0,286046995.9,N
1504593475.8,286046995.8,N
1504593495.6,286046995.0,N
1504593515.5,286046997.2,N
1504593535.3,286046999.4,N
1504593555.1,286046999.2,N
1504593575.9,286046997.0,N
1504593595.7,286046998.8,N
1504593615.5,286046995.3,N
1504593635.3,286046993.7,N
1504593655.2,286046993.6,N
1504593675.0,286046991.7,P
1504593675.9,286046991.7,P
1504593695.8,286046997.3,N
1504593715.6,286046998.4,N
1504593735.4,286047002.1,N
1504593755.2,286047000.3,N
1504593775.1,286046999.9,N
1504593776.0,286046999.9,N
1504593795.8,286047002.1,N
1504593815.6,286047001.5,N
1504593835.5,286047003.5,N
1504593855.3,286047005.0,N
1504593875.1,286047003.5,N
1504593895.9,286047001.4,N
1504593915.7,286047000.0,N
1504593935.5,286047000.6,N
1504593955.4,286046998.8,N
1504593975.2,286047000.5,N
1504593995.0,286047001.9,N
1504593995.9,286047001.9,N
1504594015.8,286047001.1,N
1504594035.6,286046998.3,N
1504594055.4,286046996.8,N
1504594075.2,286046994.9,N
1504594095.1,286046996.8,N
1504594096.0,286046996.8,N
1504594115.8,286046999.1,N
1504594135.6,286046996.5,N
1504594155.5,286047001.0,N
1504594175.3,286047000.8,N
1504594195.1,286047000.7,N
1504594215.9,286046998.3,N
1504594235.7,286046997.0,N
1504594255.5,286046997.9,N
1504594275.4,286046996.6,N
1504594295.2,286046997.2,N
1504594315.0,286046999.4,N
1504594315.9,286046999.4,N
1504594335.8,286046999.5,N
1504594355.6,286046999.6,N
1504594375.4,286046999.0,N
1504594395.3,286046996.9,N
1504594415.1,286046996.8,N
1504594416.0,286046996.8,N
1504594435.8,286046995.5,N
1504594455.7,286046994.0,P
1504594475.5,286046997.8,N
1504594495.3,286046999.2,N
1504594515.2,286046997.5,N
1504594535.9,286046996.4,N
1504594555.7,286046996.9,N
1504594575.5,286046996.1,N
1504594595.4,286046991.3,P
1504594615.2,286046993.9,N
1504594635.1,286046995.1,N
1504594636.0,286046995.1,N
1504594655.8,286046999.1,N
1504594675.6,286046998.1,N
1504594695.5,286046999.6,N
1504594715.3,286046997.4,N
1504594735.1,286047001.1,N
1504594755.8,286046999.5,N
1504594775.7,286046994.9,N
1504594795.5,286046999.4,N
